This is the latest recevied weather packets stored in our database for station/object JH7UAX-10. If no packets are shown the sender has not sent any weather packets the latest 10 day(s).
| Time | Temp. | Humidity | Pressure | Rain* | Wind** | Luminosity | Snow |
|---|---|---|---|---|---|---|---|
| 1788251355 | 21.67° C | 87% | 1027.5 hPa | 0 mm | - | - | - |
| 1788250454 | 21.67° C | 87% | 1027.7 hPa | 0 mm | - | - | - |
| 1788249555 | 22.22° C | 87% | 1027.9 hPa | 0 mm | - | - | - |
| 1788247754 | 22.22° C | 86% | 1027.7 hPa | 0 mm | - | - | - |
| 1788245955 | 22.22° C | 85% | 1027.5 hPa | 0 mm | - | - | - |
| 1788245054 | 22.22° C | 86% | 1027.8 hPa | 0 mm | - | - | - |
| 1788244154 | 22.22° C | 86% | 1027.8 hPa | 0 mm | - | - | - |
| 1788243253 | 22.22° C | 85% | 1028 hPa | 0 mm | - | - | - |
| 1788242355 | 22.78° C | 85% | 1027.9 hPa | 0 mm | - | - | - |
| 1788241454 | 22.78° C | 85% | 1028.2 hPa | 0 mm | - | - | - |
| 1788240553 | 22.78° C | 86% | 1028.4 hPa | 0 mm | - | - | - |
| 1788239653 | 22.22° C | 85% | 1028.5 hPa | 0 mm | - | - | - |
| 1788238753 | 22.22° C | 86% | 1028.5 hPa | 0 mm | - | - | - |
| 1788237855 | 22.22° C | 85% | 1028.8 hPa | 0 mm | - | - | - |
| 1788236954 | 22.78° C | 85% | 1028.9 hPa | 0 mm | - | - | - |
| 1788236054 | 22.78° C | 85% | 1028.9 hPa | 0 mm | - | - | - |
| 1788219854 | 21.67° C | 88% | 1029.5 hPa | 0 mm | - | - | - |
| 1788214454 | 21.11° C | 89% | 1029.7 hPa | 0 mm | - | - | - |
| 1788213554 | 21.11° C | 88% | 1029.7 hPa | 0 mm | - | - | - |
| 1788212655 | 21.11° C | 89% | 1029.6 hPa | 0 mm | - | - | - |
| 1788211754 | 21.11° C | 89% | 1029.7 hPa | 0 mm | - | - | - |
| 1788210855 | 21.11° C | 89% | 1029.8 hPa | 0 mm | - | - | - |
| 1788208153 | 21.11° C | 90% | 1029 hPa | 0 mm | - | - | - |
| 1788207254 | 20.56° C | 90% | 1029 hPa | 0 mm | - | - | - |
| 1788206353 | 21.11° C | 90% | 1029.1 hPa | 0 mm | - | - | - |
* Rain latest hour (hover to see other rain measurements)
** Current wind speed in m/s (hover to see current wind gust speed)